Simultaneous Nadir Overpasses (SNOs) Predictions

Prediction of SNOs between GOES-16 and AQUA Satellite Orbit:

Table of predicted SNOs for the next 14.0 days since TLE Epoch: 3/12/2022
Index Date Time (GOES-16) GOES-16 Lat,Lon AQUA Lat,Lon Distance(km) Time Diff (sec)
1 03/12/2022 06:55:57 -0.07, -75.22 0.81, -79.29 463.18 80
2 03/13/2022 18:22:27 0.06, -75.22 0.94, -71.16 462.40 80
3 03/14/2022 06:43:40 -0.06, -75.23 0.15, -76.31 122.42 80
4 03/16/2022 06:28:43 -0.05, -75.24 -0.48, -73.32 219.10 80
5 03/16/2022 18:50:04 0.05, -75.24 -0.66, -78.49 369.95 80
6 03/18/2022 18:37:46 0.05, -75.26 -0.02, -75.50 27.61 80
7 03/20/2022 18:28:08 0.05, -75.29 0.64, -72.52 315.29 80
8 03/21/2022 06:49:22 -0.05, -75.30 0.43, -77.67 268.65 80
9 03/23/2022 06:34:23 -0.05, -75.32 -0.18, -74.67 74.40 80
10 03/25/2022 06:22:04 -0.04, -75.35 -0.82, -71.68 417.73 80
11 03/25/2022 18:43:26 0.04, -75.35 -0.30, -76.85 171.15 80
